Location: Althorst
(53.6379°N, 10.7715°E)
Time: 12:22:49
(UTC+00:00)

BREEZE-M R/B - Pass Details

Date: 10 December 2019
Orbit: 309 x 4546 km, 49.7° (Epoch: 26 January)

Event Time Altitude Azimuth Distance (km) Brightness Sun altitude
Rises 15:36:35 0° 250° (WSW) 5,126 9.8 -5.6°
Reaches altitude 10° 15:41:00 10° 247° (WSW) 3,429 8.6 -6.2°
Maximum altitude 15:48:13 51° 174° (S) 935 4.2 -7.1°
Drops below altitude 10° 15:51:52 10° 97° (E) 1,742 4.9 -7.6°
Enters shadow 15:52:29 - 95° (E) 1,996 5.2 -7.7°
